This is the latest recevied weather packets stored in our database for station/object KC0CAU. If no packets are shown the sender has not sent any weather packets the latest 10 day(s).
| Time | Temp. | Humidity | Pressure | Rain* | Wind** | Luminosity | Snow |
|---|---|---|---|---|---|---|---|
| 1777596303 | 8.89° C | 46% | 1022.5 hPa | 0 mm | - | - | - |
| 1777595403 | 8.89° C | 44% | 1022.6 hPa | 0 mm | - | - | - |
| 1777594502 | 8.89° C | 45% | 1022.6 hPa | 0 mm | - | - | - |
| 1777593660 | 8.89° C | 46% | 1022.6 hPa | 0 mm | - | - | - |
| 1777592766 | 8.89° C | 47% | 1022.7 hPa | 0 mm | - | - | - |
| 1777591859 | 8.89° C | 47% | 1022.7 hPa | 0 mm | - | - | - |
| 1777590962 | 9.44° C | 46% | 1022.7 hPa | 0 mm | - | - | - |
| 1777590057 | 8.89° C | 47% | 1022.7 hPa | 0 mm | - | - | - |
| 1777589158 | 8.89° C | 47% | 1022.7 hPa | 0 mm | - | - | - |
| 1777588263 | 8.89° C | 47% | 1022.7 hPa | 0 mm | - | - | - |
| 1777587354 | 8.89° C | 47% | 1022.9 hPa | 0 mm | - | - | - |
| 1777586460 | 8.89° C | 50% | 1022.8 hPa | 0 mm | - | - | - |
| 1777585559 | 8.33° C | 50% | 1022.9 hPa | 0 mm | - | - | - |
| 1777584650 | 8.33° C | 51% | 1023 hPa | 0 mm | - | - | - |
| 1777583752 | 7.78° C | 51% | 1022.9 hPa | 0 mm | - | - | - |
| 1777582857 | 7.78° C | 52% | 1023 hPa | 0 mm | - | - | - |
| 1777581950 | 7.78° C | 52% | 1023.1 hPa | 0 mm | - | - | - |
| 1777581048 | 7.78° C | 54% | 1023.3 hPa | 0 mm | - | - | - |
| 1777580148 | 7.22° C | 54% | 1023.3 hPa | 0 mm | - | - | - |
| 1777579255 | 7.78° C | 53% | 1023.4 hPa | 0 mm | - | - | - |
| 1777578354 | 8.33° C | 52% | 1023.2 hPa | 0 mm | - | - | - |
| 1777577447 | 7.22° C | 53% | 1022.9 hPa | 0 mm | - | - | - |
| 1777576564 | 7.78° C | 55% | 1023.1 hPa | 0 mm | - | - | - |
| 1777575644 | 7.22° C | 52% | 1023.1 hPa | 0 mm | - | - | - |
| 1777574747 | 7.78° C | 51% | 1023 hPa | 0 mm | - | - | - |
* Rain latest hour (hover to see other rain measurements)
** Current wind speed in m/s (hover to see current wind gust speed)